Lake Andrews Weather Center

Moon Phase Calendar



Lake Andrews Water Level
Online Cameras

 


      

Current Conditions in Georgetown
2/27/2024 11:22:26 PM

64°F
Feels Like 64
Clouds
Humidity
77%
Pressure
30"
Wind
8 mph (S)
Dew Point
57°F
UV Index
0/10 (Low)
Visibility
6 mi

Hourly Forecast

Date & Time Tue, Feb 27
11:00 PM
Wed, Feb 28
12:00 AM
Wed, Feb 28
1:00 AM
Wed, Feb 28
2:00 AM
Wed, Feb 28
3:00 AM
Wed, Feb 28
4:00 AM
Wed, Feb 28
5:00 AM
Wed, Feb 28
6:00 AM
Wed, Feb 28
7:00 AM
Wed, Feb 28
8:00 AM
Wed, Feb 28
9:00 AM
Wed, Feb 28
10:00 AM
Wed, Feb 28
11:00 AM
Wed, Feb 28
12:00 PM
Wed, Feb 28
1:00 PM
Wed, Feb 28
2:00 PM
Wed, Feb 28
3:00 PM
Wed, Feb 28
4:00 PM
Wed, Feb 28
5:00 PM
Wed, Feb 28
6:00 PM
Wed, Feb 28
7:00 PM
Wed, Feb 28
8:00 PM
Wed, Feb 28
9:00 PM
Wed, Feb 28
10:00 PM
Wed, Feb 28
11:00 PM
Thu, Feb 29
12:00 AM
Thu, Feb 29
1:00 AM
Thu, Feb 29
2:00 AM
Thu, Feb 29
3:00 AM
Thu, Feb 29
4:00 AM
Thu, Feb 29
5:00 AM
Thu, Feb 29
6:00 AM
Thu, Feb 29
7:00 AM
Thu, Feb 29
8:00 AM
Thu, Feb 29
9:00 AM
Thu, Feb 29
10:00 AM
Thu, Feb 29
11:00 AM
Thu, Feb 29
12:00 PM
Thu, Feb 29
1:00 PM
Thu, Feb 29
2:00 PM
Thu, Feb 29
3:00 PM
Thu, Feb 29
4:00 PM
Thu, Feb 29
5:00 PM
Thu, Feb 29
6:00 PM
Thu, Feb 29
7:00 PM
Thu, Feb 29
8:00 PM
Thu, Feb 29
9:00 PM
Thu, Feb 29
10:00 PM
Condition
Clouds

Clouds

Clouds

Clouds

Clouds

Clouds

Clouds

Clouds

Clouds

Clouds

Clouds

Clouds

Clouds

Clouds

Clouds

Clouds

Clouds

Clouds

Clouds

Rain

Rain

Clouds

Clouds

Clouds

Clouds

Clouds

Clouds

Clouds

Clouds

Clouds

Clouds

Clouds

Clouds

Clouds

Clouds

Clouds

Clouds

Clouds

Clouds

Clouds

Clouds

Clouds

Clouds

Clouds

Clouds

Clouds

Clouds

Clouds
Temperature 64°F64°F62°F61°F61°F61°F62°F62°F62°F62°F64°F66°F68°F71°F74°F80°F81°F80°F76°F68°F57°F54°F52°F51°F50°F49°F47°F46°F46°F45°F44°F43°F42°F42°F44°F48°F52°F56°F57°F58°F58°F57°F57°F55°F54°F54°F54°F54°F
Feels Like 64°F63°F62°F61°F61°F61°F62°F62°F62°F63°F64°F66°F68°F72°F74°F81°F81°F80°F76°F69°F56°F53°F50°F49°F48°F44°F42°F42°F41°F40°F39°F38°F37°F37°F39°F44°F48°F52°F54°F55°F55°F54°F54°F53°F51°F51°F51°F52°F
Cloudiness 100%95%86%59%66%72%79%83%86%100%100%100%100%100%100%100%100%100%100%100%100%100%100%100%100%100%100%100%100%100%100%100%100%100%100%100%100%100%100%100%100%100%100%100%100%100%100%100%
Visibility 6 mi6 mi6 mi6 mi6 mi6 mi6 mi6 mi6 mi6 mi6 mi6 mi6 mi6 mi6 mi6 mi6 mi6 mi6 mi6 mi6 mi6 mi6 mi6 mi6 mi6 mi6 mi6 mi6 mi6 mi6 mi6 mi6 mi6 mi6 mi6 mi6 mi6 mi6 mi6 mi6 mi6 mi6 mi6 mi6 mi6 mi6 mi6 mi
Precipitation 0%0%0%0%0%0%0%0%0%0%0%0%0%0%0%0%0%3%12%29%37%8%8%3%3%3%1%0%0%0%0%0%0%0%0%0%0%0%0%0%0%0%0%0%0%0%0%0%
Humidity 77%79%83%88%92%93%91%92%93%93%91%88%84%75%67%49%48%49%55%79%81%75%66%59%56%52%51%50%46%43%41%40%40%42%39%35%32%32%34%35%36%39%42%47%51%50%48%51%
Dew Point 57°F57°F57°F58°F58°F59°F59°F60°F60°F60°F61°F62°F63°F63°F63°F60°F59°F59°F59°F62°F52°F47°F41°F38°F35°F32°F30°F29°F26°F24°F22°F20°F20°F21°F21°F22°F23°F26°F30°F31°F31°F33°F34°F36°F36°F36°F35°F37°F
Pressure 30"30"30"29.97"29.97"29.97"29.97"29.97"29.97"30"30"30"30"30.03"30"29.97"29.97"29.97"30"30.06"30.15"30.18"30.24"30.24"30.27"30.3"30.3"30.33"30.33"30.33"30.33"30.36"30.36"30.39"30.42"30.42"30.39"30.39"30.36"30.33"30.33"30.33"30.33"30.33"30.33"30.33"30.33"30.33"
Wind Speed 12.6 mph12.2 mph10.8 mph9.5 mph9.5 mph10.2 mph10.3 mph9.9 mph10.5 mph11.1 mph11.6 mph12.8 mph13.8 mph15.6 mph13.5 mph16.7 mph15.4 mph13.6 mph12.8 mph15.2 mph16 mph14.2 mph14 mph12.8 mph12.6 mph11.3 mph10.4 mph9.9 mph8.9 mph8.5 mph8.8 mph8.4 mph9.1 mph8.4 mph9.6 mph9.4 mph9.5 mph8.7 mph8.7 mph9.1 mph9.7 mph9.4 mph7.9 mph7.9 mph6.7 mph8.8 mph9.7 mph9.8 mph
Wind
Direction
190°
S
189°
S
194°
SSW
191°
S
190°
S
186°
S
195°
SSW
194°
SSW
190°
S
191°
S
195°
SSW
199°
SSW
201°
SSW
217°
SW
224°
SW
234°
SW
239°
WSW
242°
WSW
268°
W
308°
NW
339°
NNW
347°
NNW
348°
NNW
352°
N
351°
N

N

N

N
10°
N
16°
NNE
11°
N

N
10°
N
14°
NNE
30°
NNE
42°
NE
58°
ENE
69°
ENE
70°
ENE
84°
E
80°
E
91°
E
96°
E
79°
E
79°
E
80°
E
85°
E
103°
ESE

Daily Forecast

Date High Low Precip. Humidity
Today
Feb 27

Clouds
77 °F
57 °F
0%
80%
Wednesday
Feb 28

Rain
81 °F
50 °F
37%
75%
Thursday
Feb 29

Clouds
58 °F
42 °F
3%
32%
Friday
Mar 1

Rain
63 °F
51 °F
100%
71%
Saturday
Mar 2

Rain
68 °F
54 °F
29%
81%
Sunday
Mar 3

Rain
70 °F
60 °F
65%
71%
Monday
Mar 4

Rain
70 °F
60 °F
89%
82%
Tuesday
Mar 5

Rain
70 °F
59 °F
95%
62%
Wednesday
Mar 6

Rain
62 °F
59 °F
100%
92%
Thursday
Mar 7

Clouds
71 °F
59 °F
0%
77%
Friday
Mar 8

Rain
64 °F
61 °F
100%
95%
Saturday
Mar 9

Rain
75 °F
63 °F
73%
88%
Sunday
Mar 10

Rain
68 °F
55 °F
97%
65%
Monday
Mar 11

Rain
53 °F
47 °F
100%
92%
Tuesday
Mar 12

Clear
59 °F
40 °F
0%
42%
Wednesday
Mar 13

Clear
66 °F
41 °F
0%
38%

Temperature 8-14 Day Outlook



Precipitation 8-14 Day Outlook




Quick Links
Lake Andrews News
Lake Andrews Photos
Lake Andrews Videos




About Us
Contact Us
Site Map
Search Site
Advertise With Us
   
Andrews.USLakes.info
THE LAKE ANDREWS WEBSITE

Copyright 2024, Lakes Online
Privacy    |    Legal